Regional Weather Roundup
Issued by NWS

Home | Current Version | Previous Version | Text Only | Print | Product List | Glossary Off
Versions: 1 2 3 4 5 6 7 8 9 10 11 12 13 14 15 16 17 18 19 20 21 22 23 24 25 26 27 28 29 30 31 32 33 34 35 36 37 38 39 40 41 42 43 44 45 46 47 48 49 50

000
ASUS43 KDTX 210601
RWRMI
MICHIGAN HOURLY REGIONAL WEATHER ROUNDUP
NATIONAL WEATHER SERVICE DETROIT/PONTIAC MI
200 AM EDT TUE APR 21 2015

NOTE: "FAIR" INDICATES FEW OR NO CLOUDS BELOW 12,000 FEET WITH NO
SIGNIFICANT WEATHER AND/OR OBSTRUCTION TO VISIBILITY.

MIZ047>049-052>055-059>063-066>070-074>076-081>083-210700-
SOUTHEAST LOWER MICHIGAN

CITY           SKY/WX    TMP DP  RH WIND       PRES   REMARKS
ADRIAN         FAIR      42  33  70 W8        29.62S
6HR MIN TEMP:  42; 6HR MAX TEMP:  47; 6HR PCP: TRACE;

ALMA           CLOUDY    41  36  83 SW9       29.53S
ANN ARBOR      CLOUDY    44  34  67 W10       29.59R
BAD AXE        CLOUDY    42  37  81 W14G20    29.50S
CARO           CLOUDY    41  36  83 SW9G17    29.52S
DETROIT CITY   CLOUDY    45  32  60 W7G18     29.59S
6HR MIN TEMP:  45; 6HR MAX TEMP:  49;

DETROIT        CLOUDY    46  35  65 SW12      29.61R
6HR MIN TEMP:  46; 6HR MAX TEMP:  49; 6HR PCP:  0.02;

FLINT          CLOUDY    44  34  67 SW14      29.56S
6HR MIN TEMP:  43; 6HR MAX TEMP:  47; 6HR PCP: TRACE;

GROSSE ILE     CLOUDY    46  36  66 W7        29.60R
HILLSDALE      FAIR      42  32  68 W9        29.60S
6HR MIN TEMP:  42; 6HR MAX TEMP:  45;

HOWELL         CLOUDY    42  36  78 SW10      29.56S
6HR MIN TEMP:  41; 6HR MAX TEMP:  44;


CITY           SKY/WX    TMP DP  RH WIND       PRES   REMARKS
JACKSON        CLOUDY    42  33  70 W12       29.58S
6HR MIN TEMP:  42; 6HR MAX TEMP:  44;

LAMBERTVILLE   FAIR      45  32  61 SW12G17   29.64R
LANSING        CLOUDY    42  32  67 SW15G24   29.56F
6HR MIN TEMP:  42; 6HR MAX TEMP:  44; 6HR PCP: TRACE;

LAPEER         CLOUDY    42  33  71 W9        29.55S
MASON          CLOUDY    42  31  67 SW9G17    29.57S
MONROE         CLOUDY    45  37  76 W10       29.60S
PONTIAC        CLOUDY    42  33  70 SW13      29.56R
6HR MIN TEMP:  42; 6HR MAX TEMP:  46; 6HR PCP: TRACE;

PORT HOPE        N/A     41  36  82 W10G21    29.48R
6HR MIN TEMP:  41; 6HR MAX TEMP:  49; 6HR PCP:  0.03;

PORT HURON     FAIR      43  34  70 SW5       29.56S
TRI CITIES     CLOUDY    43  36  76 SW12      29.51F
6HR MIN TEMP:  42; 6HR MAX TEMP:  45; 6HR PCP:  0.02;

TROY           CLOUDY    45  34  65 W9G16     29.60S
SAGINAW HB     CLOUDY    41  36  81 SW13G21   29.52S
$$
MIZ043>046-050>051-056>058-064>065-071>073-077>080-210700-
SOUTHWEST LOWER MICHIGAN

CITY           SKY/WX    TMP DP  RH WIND       PRES   REMARKS
BATTLE CREEK   CLOUDY    42  32  67 SW13      29.58F
6HR MIN TEMP:  42; 6HR MAX TEMP:  44; 6HR PCP: TRACE;

BENTON HARBOR  FAIR      41  35  79 SW16      29.60S
6HR MIN TEMP:  41; 6HR MAX TEMP:  43;

BIG RAPIDS     CLOUDY    38  34  84 SW7       29.49S WCI  33
6HR MIN TEMP:  38; 6HR MAX TEMP:  40;

COLDWATER      CLOUDY    42  32  68 SW8       29.61S
6HR MIN TEMP:  41; 6HR MAX TEMP:  44;

FREMONT        CLOUDY    38  34  84 SW8       29.51F WCI  32
6HR MIN TEMP:  38; 6HR MAX TEMP:  41;

HOLLAND        CLOUDY    43  33  68 SW20G25   29.56F
6HR MIN TEMP:  42; 6HR MAX TEMP:  44;

GRAND RAPIDS   CLOUDY    41  32  70 SW9       29.55S
6HR MIN TEMP:  41; 6HR MAX TEMP:  42; 6HR PCP:  0.03;

IONIA          CLOUDY    41  34  76 W12       29.54S
KALAMAZOO      CLOUDY    43  31  62 SW9       29.59S
6HR MIN TEMP:  43; 6HR MAX TEMP:  44;

LUDINGTON      CLOUDY    40  34  77 SW10      29.49S WCI  34
6HR MIN TEMP:  40; 6HR MAX TEMP:  40; 6HR PCP:  0.01;

MARSHALL       CLOUDY    41  32  71 SW10      29.58S
MOUNT PLEASANT CLOUDY    40  35  81 SW9G17    29.50F WCI  34
6HR MIN TEMP:  39; 6HR MAX TEMP:  43; 6HR PCP:  0.01;

MUSKEGON       CLOUDY    40  32  73 SW10      29.53F WCI  33
6HR MIN TEMP:  40; 6HR MAX TEMP:  41;

SOUTH HAVEN    CLOUDY    44  33  65 SW15G21   29.58F
$$
MIZ016>042-210700-
NORTHERN LOWER MICHIGAN

CITY           SKY/WX    TMP DP  RH WIND       PRES   REMARKS
ALPENA         CLOUDY    39  35  86 SW6       29.43S WCI  35
6HR MIN TEMP:  39; 6HR MAX TEMP:  47; 6HR PCP:  0.02;

BEAVER ISLAND  CLOUDY    36  33  88 SW10G17   29.37S WCI  29
6HR MIN TEMP:  35; 6HR MAX TEMP:  37;

BELLAIRE       CLOUDY    38  36  90 S5        29.43F WCI  35
6HR MIN TEMP:  37; 6HR MAX TEMP:  39;

CADILLAC       CLOUDY    37  34  91 SW9       29.44F WCI  30
CHARLEVOIX     CLOUDY    37  36  93 SW12      29.43S WCI  30
6HR MIN TEMP:  36; 6HR MAX TEMP:  38;

FRANKFORT      CLOUDY    41  31  68 SW7       29.44F
GAYLORD        CLOUDY    34  34 100 W12       29.40S WCI  25
6HR MIN TEMP:  33; 6HR MAX TEMP:  37; 6HR PCP:  0.05;

GRAYLING       CLOUDY    37  34  89 W7        29.43S WCI  31
6HR MIN TEMP:  37; 6HR MAX TEMP:  38;

HARBOR SPRINGS CLOUDY    36  34  94 SW6       29.40S WCI  31
HOUGHTON LAKE  CLOUDY    38  34  85 SW12      29.45S WCI  30
6HR MIN TEMP:  38; 6HR MAX TEMP:  41; 6HR PCP:  0.01;

MANISTEE       CLOUDY    39  30  70 SW6       29.47S WCI  35
OSCODA         MOCLDY    41  36  84 SW12      29.45S
PELLSTON       CLOUDY    37  35  92 SW9       29.39S WCI  30
6HR MIN TEMP:  36; 6HR MAX TEMP:  38; 6HR PCP:  0.03;

ROGERS CITY    CLOUDY    37  35  93 SW6       29.42R WCI  32
TRAVERSE CITY  CLOUDY    38  34  85 SW8       29.42F WCI  32
6HR MIN TEMP:  38; 6HR MAX TEMP:  40; 6HR PCP:  0.01;

$$
MIZ007>008-015-210700-
EASTERN UPPER MICHIGAN

CITY           SKY/WX    TMP DP  RH WIND       PRES   REMARKS
KINROSS        CLOUDY    36  34  93 SW7       29.35S WCI  30
6HR MIN TEMP:  36; 6HR MAX TEMP:  37;

MACKINAC ISLAN CLOUDY    36  36  99 SW6       29.37S WCI  31
6HR MIN TEMP:  35; 6HR MAX TEMP:  37;

NEWBERRY       CLOUDY    33  33  99 SW10      29.33S WCI  25
S. S. MARIE    CLOUDY    36  34  92 SW8       29.34S WCI  30
6HR MIN TEMP:  35; 6HR MAX TEMP:  37; 6HR PCP:  0.04;

$$
MIZ004>006-011>014-085-210700-
CENTRAL UPPER MICHIGAN

CITY           SKY/WX    TMP DP  RH WIND       PRES   REMARKS
MANISTIQUE     CLOUDY    36  35  98 S3        29.35S
6HR MIN TEMP:  35; 6HR MAX TEMP:  37;

ESCANABA       CLOUDY    36  30  80 SW9       29.35S WCI  29
6HR MIN TEMP:  36; 6HR MAX TEMP:  37;

MENOMINEE      CLOUDY    37  28  70 W9G16     29.39S WCI  31
6HR MIN TEMP:  37; 6HR MAX TEMP:  41; 6HR PCP:  0.01;

$$
MIZ001>003-009>011-084-210700-
WESTERN UPPER MICHIGAN

CITY           SKY/WX    TMP DP  RH WIND       PRES   REMARKS
IRON MOUNTAIN  CLOUDY    36  29  75 SW9       29.31F WCI  29
6HR MIN TEMP:  36; 6HR MAX TEMP:  38; 6HR PCP: TRACE;

HOUGHTON       LGT SNOW  33  30  88 W17G29    29.23F FOG     WCI  22
6HR MIN TEMP:  33; 6HR MAX TEMP:  34; 6HR PCP:  0.02;

COPPER HARBOR    N/A     34  31  88 VRB7G18   29.22F WCI  28
6HR MIN TEMP:  34; 6HR MAX TEMP:  35; 6HR PCP:  0.02;

IRONWOOD       CLOUDY    32  30  93 W15       29.29S WCI  22
6HR MIN TEMP:  32; 6HR MAX TEMP:  36;

$$

ABBREVIATIONS USED IN REMARKS
   TC - TEMPERATURE IN CELSIUS
  WCI - WIND CHILL INDEX
   HX - HEAT INDEX
  VSB - VISIBILITY



USA.gov is the U.S. government's official web portal to all federal, state and local government web resources and services.